Weather History for Cherokee, IA

Change the Weather History Date:

Monday, March 18, 2013

  Actual Average Record
Temperature  
Mean Temperature 24 °F -  
Max Temperature 32 °F 42 °F 85 °F (2012)
Min Temperature 17 °F 25 °F -1 °F (1965)
Degree Days  
Heating Degree Days 40    
Moisture  
Dew Point 17 °F    
Average Humidity 74    
Maximum Humidity 99    
Minimum Humidity 55    
Precipitation  
Precipitation 0.00 in - - ()
Sea Level Pressure  
Sea Level Pressure 29.82 in    
Wind  
Wind Speed 16 mph (WNW)    
Max Wind Speed 26 mph    
Max Gust Speed 36 mph    
Visibility 8 miles    
Events Rain , Snow    
Averages and records for this station are not official NWS values.
T = Trace of Precipitation, MM = Missing Value Source: NWS Daily Summary

Daily Weather History Graph

Daily Weather History Graph

Search for Another Location

Airport:

Trip Planner

Search our weather history database for the weather conditions in past years. The results will help you decide how hot, cold, wet, or windy it might be!

Date:

Astronomy

Mar. 18, 2013 Rise Set
Actual Time 7:28 AM CDT 7:32 PM CDT
Civil Twilight 7:00 AM CDT 8:00 PM CDT
Nautical Twilight 6:27 AM CDT 8:33 PM CDT
Astronomical Twilight 5:53 AM CDT 9:07 PM CDT
Moon 11:21 AM CDT (3/18) 1:40 AM CDT (3/18)
Length of Visible Light 13h 00m
Length of Day
12h 04m
Waxing Crescent, 41% of the Moon is Illuminated
Mar 18
Waxing Crescent
Mar 19
First Quarter
Mar 27
Full
Apr 2
Last Quarter
Apr 10
New

Hourly Weather History & Observations

Time (CDT) Temp. Windchill Dew Point Humidity Pressure Visibility Wind Dir Wind Speed Gust Speed Precip Events Conditions
12:15 AM 31.8 °F 21.0 °F 29.7 °F 92% 29.74 in 3.0 mi SE 16.1 mph 19.6 mph N/A Snow Light Snow
12:35 AM 31.8 °F 20.2 °F 30.0 °F 93% 29.72 in 5.0 mi SE 18.4 mph 25.3 mph N/A Snow Light Snow
12:55 AM 32.0 °F 21.2 °F 30.4 °F 94% 29.71 in 7.0 mi SE 16.1 mph - N/A   Overcast
1:15 AM 32.0 °F 21.2 °F 30.7 °F 95% 29.69 in 7.0 mi SSE 16.1 mph 26.5 mph N/A   Overcast
1:35 AM 32.0 °F 21.2 °F 30.7 °F 95% 29.70 in 10.0 mi South 16.1 mph 25.3 mph N/A   Overcast
1:55 AM 32.0 °F 20.8 °F 30.7 °F 95% 29.70 in 7.0 mi South 17.3 mph 20.7 mph N/A   Light Drizzle
2:15 AM 32.0 °F - 30.7 °F 95% 29.72 in 10.0 mi Calm Calm - N/A   Overcast
2:35 AM 32.2 °F 22.7 °F 30.9 °F 95% 29.73 in 7.0 mi South 12.7 mph 17.3 mph N/A Snow Light Snow
2:55 AM 32.2 °F 22.3 °F 31.1 °F 96% 29.72 in 2.5 mi South 13.8 mph - N/A Snow Light Snow
3:15 AM 32.0 °F 23.0 °F 31.1 °F 96% 29.72 in 1.5 mi SSW 11.5 mph - N/A Snow Light Snow
3:35 AM 32.0 °F 22.5 °F 31.5 °F 98% 29.71 in 5.0 mi SSW 12.7 mph - N/A Snow Light Snow
3:55 AM 32.0 °F 22.5 °F 31.5 °F 98% 29.70 in 4.0 mi SSW 12.7 mph 17.3 mph N/A Snow Light Snow
4:15 AM 32.0 °F 23.6 °F 31.5 °F 98% 29.69 in 3.0 mi SSW 10.4 mph - N/A Rain Light Rain
4:35 AM 32.0 °F 21.6 °F 31.6 °F 99% 29.68 in 3.0 mi SSW 15.0 mph - N/A Rain Light Rain
4:55 AM 32.2 °F 21.8 °F 31.8 °F 99% 29.67 in 3.0 mi SSW 15.0 mph - N/A Rain Light Rain
5:15 AM 32.4 °F 21.7 °F 32.0 °F 99% 29.68 in 4.0 mi WSW 16.1 mph 20.7 mph N/A Rain Light Rain
5:35 AM 32.5 °F 23.2 °F 31.3 °F 95% 29.68 in 7.0 mi West 12.7 mph 20.7 mph N/A   Overcast
5:55 AM 32.4 °F 21.7 °F 28.6 °F 86% 29.69 in 10.0 mi West 16.1 mph 25.3 mph N/A   Overcast
6:15 AM 32.0 °F 20.1 °F 27.3 °F 83% 29.69 in 10.0 mi WNW 19.6 mph 26.5 mph N/A   Overcast
6:35 AM 31.1 °F 18.9 °F 25.9 °F 81% 29.70 in 10.0 mi WNW 19.6 mph 31.1 mph N/A   Overcast
6:55 AM 30.4 °F 18.7 °F 24.8 °F 80% 29.71 in 10.0 mi WNW 17.3 mph 23.0 mph N/A   Overcast
7:15 AM 28.4 °F 16.2 °F 22.6 °F 79% 29.72 in 10.0 mi NW 17.3 mph 27.6 mph N/A   Overcast
7:35 AM 27.7 °F 14.8 °F 21.7 °F 78% 29.74 in 10.0 mi WNW 18.4 mph 25.3 mph N/A   Overcast
7:55 AM 25.7 °F 11.5 °F 19.9 °F 79% 29.74 in 10.0 mi WNW 20.7 mph 27.6 mph N/A   Overcast
8:15 AM 25.2 °F 11.2 °F 18.3 °F 75% 29.75 in 10.0 mi WNW 19.6 mph 24.2 mph N/A   Overcast
8:35 AM 24.4 °F 9.5 °F 17.4 °F 75% 29.75 in 10.0 mi WNW 21.9 mph 29.9 mph N/A   Overcast
8:55 AM 23.7 °F 10.5 °F 14.2 °F 67% 29.76 in 10.0 mi NW 16.1 mph 23.0 mph N/A   Mostly Cloudy
9:15 AM 23.4 °F 11.6 °F 14.7 °F 70% 29.77 in 10.0 mi NW 12.7 mph 23.0 mph N/A   Mostly Cloudy
9:35 AM 22.6 °F 8.7 °F 14.5 °F 71% 29.77 in 7.0 mi NW 17.3 mph 25.3 mph N/A Snow Light Snow
9:55 AM 22.1 °F 8.9 °F 15.8 °F 77% 29.78 in 4.0 mi WNW 15.0 mph 24.2 mph N/A Snow Light Snow
10:15 AM 22.1 °F 8.9 °F 14.7 °F 73% 29.79 in 7.0 mi NW 15.0 mph 23.0 mph N/A Snow Light Snow
10:35 AM 21.2 °F 9.5 °F 12.9 °F 70% 29.80 in 7.0 mi NW 11.5 mph 29.9 mph N/A Snow Light Snow
10:55 AM 20.7 °F 5.3 °F 13.1 °F 73% 29.81 in 4.0 mi WNW 19.6 mph 32.2 mph N/A Snow Light Snow
11:15 AM 21.4 °F 4.4 °F 10.2 °F 62% 29.82 in 10.0 mi WNW 25.3 mph 32.2 mph N/A   Overcast
11:35 AM 20.1 °F 4.2 °F 13.1 °F 74% 29.82 in 0.8 mi WNW 20.7 mph 26.5 mph N/A Snow Light Snow
11:55 AM 20.5 °F 3.5 °F 10.6 °F 66% 29.83 in 10.0 mi WNW 24.2 mph 31.1 mph N/A   Overcast
12:15 PM 20.1 °F 5.4 °F 10.2 °F 66% 29.84 in 10.0 mi WNW 17.3 mph 32.2 mph N/A   Overcast
12:35 PM 19.4 °F 4.5 °F 9.7 °F 66% 29.85 in 10.0 mi WNW 17.3 mph 33.4 mph N/A   Overcast
12:55 PM 19.6 °F 2.3 °F 7.7 °F 60% 29.86 in 10.0 mi WNW 24.2 mph 32.2 mph N/A   Overcast
1:15 PM 19.2 °F 1.5 °F 8.2 °F 62% 29.86 in 10.0 mi WNW 25.3 mph 34.5 mph N/A   Mostly Cloudy
1:35 PM 19.4 °F 2.1 °F 8.4 °F 62% 29.86 in 10.0 mi WNW 24.2 mph 32.2 mph N/A   Overcast
1:55 PM 19.4 °F 3.2 °F 8.4 °F 62% 29.86 in 10.0 mi WNW 20.7 mph 33.4 mph N/A   Overcast
2:15 PM 19.4 °F 3.6 °F 9.7 °F 66% 29.87 in 7.0 mi WNW 19.6 mph 33.4 mph N/A   Overcast
2:35 PM 20.5 °F 3.5 °F 9.5 °F 63% 29.87 in 10.0 mi WNW 24.2 mph 35.7 mph N/A   Overcast
2:55 PM 20.5 °F 3.9 °F 9.9 °F 64% 29.87 in 10.0 mi WNW 23.0 mph 34.5 mph N/A   Overcast
3:15 PM 21.7 °F 5.6 °F 9.7 °F 60% 29.86 in 10.0 mi WNW 23.0 mph 29.9 mph N/A   Overcast
3:35 PM 21.9 °F 6.9 °F 10.0 °F 60% 29.87 in 10.0 mi WNW 19.6 mph 28.8 mph N/A   Overcast
3:55 PM 22.5 °F 8.5 °F 11.3 °F 62% 29.88 in 10.0 mi WNW 17.3 mph 31.1 mph N/A   Overcast
4:15 PM 22.1 °F 5.1 °F 10.2 °F 60% 29.88 in 10.0 mi NW 26.5 mph 35.7 mph N/A Snow Light Snow
4:35 PM 23.0 °F 7.2 °F 11.5 °F 61% 29.89 in 10.0 mi WNW 23.0 mph 31.1 mph N/A   Overcast
4:55 PM 22.1 °F 8.9 °F 11.8 °F 65% 29.89 in 10.0 mi NW 15.0 mph 27.6 mph N/A   Overcast
5:15 PM 23.0 °F 8.7 °F 12.0 °F 63% 29.89 in 10.0 mi NW 18.4 mph 28.8 mph N/A   Overcast
5:35 PM 23.5 °F 9.0 °F 12.2 °F 62% 29.89 in 10.0 mi NW 19.6 mph 29.9 mph N/A   Mostly Cloudy
5:55 PM 23.9 °F 9.1 °F 9.7 °F 55% 29.90 in 10.0 mi NW 20.7 mph 32.2 mph N/A   Scattered Clouds
6:15 PM 23.5 °F 8.3 °F 9.7 °F 56% 29.90 in 10.0 mi NW 21.9 mph 35.7 mph N/A   Scattered Clouds
6:35 PM 23.0 °F 9.2 °F 10.0 °F 58% 29.91 in 10.0 mi NW 17.3 mph 27.6 mph N/A   Scattered Clouds
6:55 PM 22.6 °F 10.1 °F 11.3 °F 62% 29.92 in 10.0 mi NW 13.8 mph 19.6 mph N/A   Scattered Clouds
7:15 PM 22.6 °F 7.5 °F 10.0 °F 59% 29.93 in 10.0 mi WNW 20.7 mph 29.9 mph N/A   Scattered Clouds
7:35 PM 21.2 °F 7.3 °F 9.7 °F 61% 29.94 in 10.0 mi NW 16.1 mph 23.0 mph N/A   Clear
7:55 PM 20.8 °F 6.8 °F 9.5 °F 62% 29.95 in 10.0 mi NW 16.1 mph 26.5 mph N/A   Clear
8:15 PM 20.3 °F - 10.2 °F 65% 29.96 in 10.0 mi Calm Calm - N/A   Clear
8:35 PM 20.3 °F 15.4 °F 10.4 °F 66% 29.97 in 10.0 mi NW 3.5 mph 20.7 mph N/A   Clear
8:55 PM 20.1 °F 7.5 °F 10.2 °F 66% 29.98 in 10.0 mi NW 12.7 mph 21.9 mph N/A   Clear
9:15 PM 19.4 °F 6.0 °F 10.4 °F 68% 29.99 in 10.0 mi NW 13.8 mph 18.4 mph N/A   Clear
9:35 PM 19.4 °F 7.2 °F 9.5 °F 65% 29.99 in 10.0 mi NW 11.5 mph 24.2 mph N/A   Clear
9:55 PM 19.2 °F 4.3 °F 9.3 °F 65% 29.99 in 10.0 mi NW 17.3 mph 23.0 mph N/A   Clear
10:15 PM 19.0 °F 3.6 °F 9.1 °F 65% 30.00 in 10.0 mi NNW 18.4 mph 24.2 mph N/A   Clear
10:55 PM 18.3 °F 3.6 °F 9.5 °F 68% 29.99 in 10.0 mi NNW 16.1 mph 21.9 mph N/A   Clear
11:15 PM 18.1 °F 5.0 °F 9.5 °F 69% 29.99 in 10.0 mi NNW 12.7 mph 23.0 mph N/A   Clear
11:35 PM 17.6 °F 3.7 °F 9.3 °F 70% 29.99 in 10.0 mi NNW 13.8 mph 17.3 mph N/A   Clear
11:55 PM 17.2 °F 2.7 °F 9.3 °F 71% 29.99 in 10.0 mi NNW 15.0 mph 19.6 mph N/A   Clear